• MPC Preparation (Info)

  • MPEC 2016-R148: 2016 RT33

    The following Minor Planet Electronic Circular may be linked-to from your own Web pages, but must not otherwise be redistributed electronically.

    A form allowing access to any MPEC is at the bottom of this page.


    Read MPEC 2016-R147 Read MPEC 2016-R149


    M.P.E.C. 2016-R148                               Issued 2016 Sept. 14, 02:19 UT
    
         The Minor Planet Electronic Circulars contain information on unusual
             minor planets and routine data on comets.  They are published
        on behalf of Division F of the International Astronomical Union by the
              Minor Planet Center, Smithsonian Astrophysical Observatory,
                              Cambridge, MA 02138, U.S.A.
    
                 Prepared using the Tamkin Foundation Computer Network
    
                                  MPC@CFA.HARVARD.EDU
                URL https://www.minorplanetcenter.net/    ISSN 1523-6714
    
                                       2016 RT33
    
    Observations:
         K16R33T* C2016 09 10.19513 22 43 43.73 +44 27 24.8                qER148G96
         K16R33T  C2016 09 10.20164 22 43 50.05 +44 27 00.4          20.3 VqER148G96
         K16R33T  C2016 09 10.20545 22 43 53.64 +44 26 48.2          19.6 VqER148G96
         K16R33T  C2016 09 10.35936 22 46 23.39 +44 16 41.8          20.5 VqER148G96
         K16R33T  C2016 09 10.35978 22 46 23.75 +44 16 40.1          20.0 VqER148G96
         K16R33T  C2016 09 10.36020 22 46 24.15 +44 16 38.4          20.5 VqER148G96
         K16R33T  C2016 09 10.36062 22 46 24.58 +44 16 36.9          20.4 VqER148G96
         K16R33T FC2016 09 10.89372 22 55 49.08 +43 37 34.2                qER148246
         K16R33T FC2016 09 10.89415 22 55 49.69 +43 37 32.3                qER148246
         K16R33T KC2016 09 11.00772 22 57 49.54 +43 28 28.2                qER148J95
         K16R33T KC2016 09 11.01380 22 57 56.01 +43 27 58.6                qER148J95
         K16R33T KC2016 09 11.02077 22 58 03.38 +43 27 24.8          20.0 RqER148J95
         K16R33T KC2016 09 11.16596 23 00 46.75 +43 15 41.1                qER148H36
         K16R33T KC2016 09 11.17982 23 01 01.48 +43 14 32.9          20.4 RqER148H36
         K16R33T KC2016 09 11.19371 23 01 16.07 +43 13 25.0          20.5 RqER148H36
         K16R33T KC2016 09 11.20757 23 01 30.87 +43 12 15.1          20.1 RqER148H36
         K16R33T KC2016 09 11.23778323 02 01.81 +43 09 40.9          20.2 VuER148H21
         K16R33T KC2016 09 11.24331023 02 07.71 +43 09 12.3          20.3 VuER148H21
         K16R33T KC2016 09 11.24889523 02 13.61 +43 08 43.3          20.2 VuER148H21
         K16R33T KC2016 09 12.13885223 19 18.68 +41 42 02.2          20.3 VuER148H21
         K16R33T KC2016 09 12.14473623 19 25.43 +41 41 24.9          20.5 VuER148H21
         K16R33T KC2016 09 12.15011723 19 31.60 +41 40 50.7          20.3 VuER148H21
         K16R33T  C2016 09 12.18912 23 20 19.31 +41 36 40.3          20.4 VqER148G96
         K16R33T  C2016 09 12.19053 23 20 20.89 +41 36 31.5          20.3 VqER148G96
         K16R33T  C2016 09 12.19251 23 20 23.15 +41 36 18.3          19.8 VqER148G96
         K16R33T  C2016 09 12.19455 23 20 25.53 +41 36 06.1          20.1 VqER148G96
         K16R33T KC2016 09 13.83079 23 54 33.50 +37 53 33.5          19.7 RtER148104
         K16R33T KC2016 09 13.84542 23 54 52.25 +37 51 13.8                tER148104
         K16R33T KC2016 09 13.84737 23 54 54.75 +37 50 55.4          19.3 RtER148104
         K16R33T KC2016 09 13.85518 23 55 04.69 +37 49 40.6          19.2 RtER148104
         K16R33T KC2016 09 13.98056 23 57 45.33 +37 28 53.3                qER148J95
         K16R33T KC2016 09 13.99413 23 58 02.61 +37 26 36.4                qER148J95
         K16R33T KC2016 09 14.00871 23 58 21.18 +37 24 08.9          19.9 RqER148J95
    
    Observer details:
    104 San Marcello Pistoiese.  Observers P. Bacci, M. Maestripieri, M. Garozzo.
        Measurers P. Bacci, L. Tesi, G. Fagioli.  0.60-m f/4 reflector + CCD.
    246 Klet Observatory-KLENOT.  Observers M. Tichy, J. Ticha.  Measurer M. Tichy.
        1.06-m KLENOT Telescope + CCD.
    G96 Mt. Lemmon Survey.  Observers A. R. Gibbs, R. A. Kowalski.  Measurers
        E. J. Christensen, D. C. Fuls, A. R. Gibbs, A. D. Grauer, J. A. Johnson,
        R. A. Kowalski, S. M. Larson, G. J. Leonard, R. G. Matheny, R. L. Seaman,
        F. C. Shelly.  1.5-m reflector + 10K CCD.
    H21 Astronomical Research Observatory, Westfield.  Observer R. Holmes.
        Measurers S. Foglia, L. Buzzi, T. Linder, R. Holmes.  0.61-m f/4.5
        astrograph + CCD.
    H36 Sandlot Observatory, Scranton.  Observer G. Hug.  0.56-m reflector + CCD.
    J95 Great Shefford.  Observer P. Birtwhistle.  0.40-m f/6.0 Schmidt-Cassegrain
        + CCD.
    
    Orbital elements:
    2016 RT33                                                Earth MOID = 0.0507 AU
    Epoch 2016 July 31.0 TT = JDT 2457600.5                 MPC
    M 347.81572              (2000.0)            P               Q
    n   0.22105452     Peri.  185.12542     +0.99742111     -0.07147954
    a   2.7089632      Node   178.90884     +0.07174477     +0.99544926
    e   0.6111288      Incl.   19.84674     -0.00195285     +0.06301937
    P   4.46           H   23.8           G   0.15           U   7
    Residuals in seconds of arc
    160910 G96  0.0   0.4+    160911 J95  0.9+  0.0     160912 G96  0.1+  0.1+
    160910 G96  0.1+  0.2-    160911 H36  0.2+  0.1-    160912 G96  0.4-  0.3+
    160910 G96  1.0-  1.7+    160911 H36  0.6+  0.3-    160912 G96  0.6-  0.2-
    160910 G96  0.5+  0.1+    160911 H36  0.8-  0.5+    160912 G96  0.3-  0.6+
    160910 G96  0.0   0.2+    160911 H36  0.5+  0.2-    160913 104  0.1-  0.5-
    160910 G96  0.2-  0.2+    160911 H21  0.7-  0.2-    160913 104  0.4+  0.8-
    160910 G96  0.0   0.5+    160911 H21  0.3-  0.2-    160913 104  0.4+  0.6-
    160910 246  0.6-  0.1+    160911 H21  0.6-  0.2-    160913 104  0.0   0.6-
    160910 246  1.1+  0.2+    160912 H21  0.2-  0.1+    160913 J95  0.4+  0.6+
    160911 J95  0.7-  0.4-    160912 H21  0.2-  0.2+    160913 J95  0.0   0.1+
    160911 J95  0.3+  0.3-    160912 H21  0.2-  0.2+    160914 J95  0.4-  0.1-
    
    Ephemeris:
    2016 RT33                a,e,i = 2.71, 0.61, 20                  q = 1.0534
    Date    TT    R. A. (2000) Decl.     Delta      r     Elong.  Phase     V
    2016 08 15    20 11 35.2 +43 47 07   0.2799  1.1736   118.8    49.1    23.2
    ...
    2016 08 30    20 52 27.4 +46 55 18   0.1688  1.1030   119.7    52.7    22.1
    ...
    2016 09 07    21 57 35.3 +46 36 00   0.1128  1.0769   125.4    49.7    21.1
    ...
    2016 09 13    23 36 43.1 +39 57 37   0.07757 1.0634   136.2    41.0    20.0
    2016 09 14    23 58 08.2 +37 26 14   0.07305 1.0617   138.6    38.8    19.8
    2016 09 15    00 20 25.3 +34 19 00   0.06914 1.0602   140.9    36.7    19.6
    ...
    2016 09 21    02 28 07.8 +05 35 38   0.06380 1.0542   140.9    36.9    19.4
    ...
    2016 09 29    04 06 57.2 -22 01 17   0.1001  1.0553   120.0    55.3    20.9
    ...
    2016 10 14    05 07 27.1 -35 22 29   0.2020  1.0848   110.5    59.4    22.6
    
    A. U. Tomatic                (C) Copyright 2016 MPC           M.P.E.C. 2016-R148
    

    Read MPEC 2016-R147 Read MPEC 2016-R149


    MPEC number:

    Enter an MPEC number in one of the following forms:

    • 1997-B01 (the full form)
    • J97B01 (the packed version of the full form)
    • B01 (the abbreviated form)